This is the latest recevied weather packets stored in our database for station/object OK5TVR-5. If no packets are shown the sender has not sent any weather packets the latest 10 day(s).
| Time | Temp. | Humidity | Pressure | Rain* | Wind** | Luminosity | Snow |
|---|---|---|---|---|---|---|---|
| 1776949294 | 20.56° C | 13% | 1013.4 hPa | 0 mm | - | 227 W/m² | - |
| 1776948392 | 20° C | 16% | 1013.5 hPa | 0 mm | - | 239 W/m² | - |
| 1776947490 | 20° C | 17% | 1013.5 hPa | 0 mm | - | 270 W/m² | - |
| 1776947490 | 20° C | 17% | 1013.5 hPa | 0 mm | - | 270 W/m² | - |
| 1776946586 | 20° C | 18% | 1013.5 hPa | 0 mm | - | 284 W/m² | - |
| 1776946586 | 20° C | 18% | 1013.5 hPa | 0 mm | - | 284 W/m² | - |
| 1776945685 | 20° C | 19% | 1014.6 hPa | 0 mm | - | 306 W/m² | - |
| 1776945685 | 20° C | 19% | 1014.6 hPa | 0 mm | - | 306 W/m² | - |
| 1776944784 | 20.56° C | 22% | 1014.5 hPa | 0 mm | - | 333 W/m² | - |
| 1776944783 | 20.56° C | 22% | 1014.5 hPa | 0 mm | - | 333 W/m² | - |
| 1776943883 | 19.44° C | 17% | 1014.6 hPa | 0 mm | - | 352 W/m² | - |
| 1776942982 | 19.44° C | 24% | 1014.6 hPa | 0 mm | - | 362 W/m² | - |
| 1776942982 | 19.44° C | 24% | 1014.6 hPa | 0 mm | - | 362 W/m² | - |
| 1776942080 | 18.89° C | 23% | 1014.7 hPa | 0 mm | - | 359 W/m² | - |
| 1776941180 | 18.33° C | 21% | 1014.7 hPa | 0 mm | - | 391 W/m² | - |
| 1776941180 | 18.33° C | 21% | 1014.7 hPa | 0 mm | - | 391 W/m² | - |
| 1776940279 | 17.22° C | 31% | 1015.9 hPa | 0 mm | - | 385 W/m² | - |
| 1776940279 | 17.22° C | 31% | 1015.9 hPa | 0 mm | - | 385 W/m² | - |
| 1776939377 | 17.78° C | 34% | 1015.9 hPa | 0 mm | - | 388 W/m² | - |
| 1776938476 | 16.67° C | 31% | 1016 hPa | 0 mm | - | 370 W/m² | - |
| 1776937576 | 16.67° C | 37% | 1016 hPa | 0 mm | - | 366 W/m² | - |
| 1776937576 | 16.67° C | 37% | 1016 hPa | 0 mm | - | 366 W/m² | - |
| 1776936675 | 16.11° C | 42% | 1016.1 hPa | 0 mm | - | 349 W/m² | - |
| 1776936675 | 16.11° C | 42% | 1016.1 hPa | 0 mm | - | 349 W/m² | - |
| 1776935772 | 15° C | 39% | 1016.2 hPa | 0 mm | - | 331 W/m² | - |
* Rain latest hour (hover to see other rain measurements)
** Current wind speed in m/s (hover to see current wind gust speed)